Content
SEND FEEDBACK

Daily
Averages
Monthly
Summary
United States of America

ROCK HILL, NEW YORK


Home > North America > United States > New York
Elevation: 1260 feet     Latitude: 41 35N     Longitude: 074 37W

WEATHER
 
SELECT A DAY
Number of Records: 455,228;   Date Range: 1/1/95 - 12/26/14
 
SHARE

PRINT THIS DATA

[ ← Previous Day ]
WEATHER ALMANAC - AUGUST 15, 2014
[ Next Day → ]
[ °C ]   °F
Weather ElementAverageHighLow
Temperature55.3 °F62.6 °F (12:15 am)46.4 °F (6:15 am)
Dewpoint48.9 °F51.8 °F (12:35 am)46.4 °F (5:35 am)
Humidity80.4 %100 % (12:15 am)59 % (7:35 pm)
Barometer29.96 in30.01 in (7:35 am)29.92 in (2:55 pm)
Wind Speed5.3 mph15 mph (3:55 pm)
Wind Gust21.9 mph (3:15 pm)
Weather ElementAverage
Visibility10 mi
Wind DirectionSSW (209 °)

Weather ElementTotal
Precipitation0.11 in
Heating Degree Days10.5 (Base 65)
Growing Degree Days4.5 (Base 50)
Averaged from 72 records on August 15, 2014
WEATHER CONDITIONS BREAKOUT
WIND DIRECTION BREAKOUT
WEATHER BY HOUR - AUGUST 15, 2014
[ °C ]   °F
Local TimeTemperatureDewpointHumidityBarometerVisibilityWind DirectionWind SpeedGust SpeedPrecipitationEventsConditions
12:15 AM53.6 °F50.0 °F88 %29.94 in10.0 miWest (280°)3.5 mphClear
12:35 AM51.8 °F51.8 °F100 %29.93 in9.0 miWNW (300°)4.6 mphClear
12:55 AM51.8 °F48.2 °F88 %29.94 in10.0 miWest (280°)5.8 mphClear
1:15 AM51.8 °F48.2 °F88 %29.93 in10.0 miWest (280°)5.8 mphClear
1:35 AM51.8 °F48.2 °F88 %29.93 in10.0 miWest (280°)5.8 mphClear
1:55 AM51.8 °F48.2 °F88 %29.93 in10.0 miWNW (290°)4.6 mphClear
2:15 AM51.8 °F48.2 °F88 %29.93 in10.0 miWest (270°)4.6 mphClear
2:35 AM51.8 °F48.2 °F88 %29.93 in10.0 miWest (270°)4.6 mphClear
2:55 AM50.0 °F48.2 °F94 %29.93 in10.0 miWest (260°)4.6 mphClear
3:15 AM50.0 °F48.2 °F94 %29.93 in10.0 miCalmClear
3:35 AM48.2 °F48.2 °F100 %29.92 in10.0 miCalmClear
3:55 AM48.2 °F46.4 °F93 %29.92 in10.0 miWest (260°)3.5 mphClear
4:15 AM48.2 °F46.4 °F93 %29.92 in10.0 miWest (260°)3.5 mphClear
4:35 AM48.2 °F46.4 °F93 %29.92 in10.0 miCalmClear
4:55 AM48.2 °F46.4 °F93 %29.92 in10.0 miCalmClear
5:15 AM48.2 °F46.4 °F93 %29.92 in10.0 miWSW (240°)3.5 mphClear
5:35 AM48.2 °F46.4 °F93 %29.92 in10.0 miWSW (250°)3.5 mphClear
5:55 AM48.2 °F46.4 °F93 %29.93 in10.0 miCalmClear
6:15 AM46.4 °F46.4 °F100 %29.93 in10.0 miCalm0.01 inClear
6:35 AM46.4 °F46.4 °F100 %29.94 in10.0 miCalm0.01 inMostly Cloudy
6:55 AM48.2 °F46.4 °F93 %29.94 in10.0 miCalm0.01 inOvercast
7:15 AM48.2 °F48.2 °F100 %29.94 in10.0 miCalmOvercast
7:35 AM50.0 °F48.2 °F94 %29.94 in10.0 miNorth (350°)3.5 mphOvercast
7:55 AM50.0 °F48.2 °F94 %29.95 in10.0 miWest (270°)4.6 mphOvercast
8:15 AM50.0 °F48.2 °F94 %29.95 in10.0 miWest (270°)6.9 mphOvercast
8:35 AM51.8 °F48.2 °F88 %29.95 in10.0 miWest (260°)5.8 mphOvercast
8:55 AM51.8 °F48.2 °F88 %29.95 in10.0 miWest (270°)8.1 mphOvercast
9:15 AM53.6 °F48.2 °F82 %29.96 in10.0 miWest (270°)6.9 mphOvercast
9:35 AM53.6 °F50.0 °F88 %29.96 in10.0 miWest (270°)6.9 mphScattered Clouds
9:55 AM55.4 °F48.2 °F77 %29.96 in10.0 miWNW (290°)10.4 mphMostly Cloudy
10:15 AM57.2 °F50.0 °F77 %29.96 in10.0 miWNW (290°)8.1 mph16.1 mph0.02 inOvercast
10:35 AM57.2 °F50.0 °F77 %29.96 in10.0 miNW (320°)9.2 mph17.3 mph0.02 inOvercast
10:55 AM57.2 °F50.0 °F77 %29.96 in10.0 miWNW (290°)6.9 mph0.02 inOvercast
11:15 AM60.8 °F48.2 °F63 %29.96 in10.0 miNW (310°)15.0 mph20.7 mphOvercast
11:35 AM60.8 °F48.2 °F63 %29.97 in10.0 miWNW (300°)9.2 mph17.3 mphOvercast
11:55 AM60.8 °F46.4 °F59 %29.96 in10.0 miNW (310°)13.8 mph20.7 mphOvercast
12:15 PM60.8 °F48.2 °F63 %29.97 in10.0 miWest (270°)10.4 mph19.6 mphMostly Cloudy
12:35 PM60.8 °F48.2 °F63 %29.97 in10.0 miWNW (290°)11.5 mph21.9 mphMostly Cloudy
12:55 PM59.0 °F46.4 °F63 %29.97 in10.0 miWNW (290°)8.1 mph17.3 mphOvercast
1:15 PM60.8 °F48.2 °F63 %29.97 in10.0 miWNW (290°)9.2 mphOvercast
1:35 PM60.8 °F48.2 °F63 %29.97 in10.0 miWNW (290°)6.9 mphOvercast
1:55 PM60.8 °F48.2 °F63 %29.98 in10.0 miWest (270°)11.5 mphOvercast
2:15 PM60.8 °F48.2 °F63 %29.97 in10.0 miWest (280°)12.7 mph16.1 mphOvercast
2:35 PM60.8 °F46.4 °F59 %29.97 in10.0 miWest (280°)9.2 mphOvercast
2:55 PM60.8 °F48.2 °F63 %29.97 in10.0 miWest (280°)5.8 mphOvercast
3:15 PM60.8 °F48.2 °F63 %29.97 in10.0 miWest (280°)6.9 mphOvercast
3:35 PM62.6 °F48.2 °F59 %29.97 in10.0 miWest (280°)8.1 mph16.1 mphOvercast
3:55 PM62.6 °F48.2 °F59 %29.97 in10.0 miWest (280°)10.4 mph19.6 mphOvercast
4:15 PM62.6 °F50.0 °F63 %29.97 in10.0 miWest (280°)8.1 mphOvercast
4:35 PM60.8 °F48.2 °F63 %29.97 in10.0 miWest (260°)9.2 mphOvercast
4:55 PM60.8 °F48.2 °F63 %29.97 in10.0 miWest (260°)5.8 mphOvercast
5:15 PM60.8 °F48.2 °F63 %29.97 in10.0 miWest (260°)9.2 mphOvercast
5:35 PM60.8 °F50.0 °F68 %29.97 in10.0 miWest (260°)9.2 mph0.01 inOvercast
5:55 PM60.8 °F48.2 °F63 %29.97 in10.0 miWest (270°)8.1 mph0.01 inOvercast
6:15 PM60.8 °F50.0 °F68 %29.97 in10.0 miWest (260°)8.1 mphOvercast
6:35 PM60.8 °F50.0 °F68 %29.97 in10.0 miWest (260°)6.9 mphOvercast
6:55 PM60.8 °F50.0 °F68 %29.97 in10.0 miWSW (250°)5.8 mphOvercast
7:15 PM59.0 °F50.0 °F72 %29.97 in10.0 miWest (260°)5.8 mphOvercast
7:35 PM59.0 °F50.0 °F72 %29.98 in10.0 miWSW (250°)4.6 mphOvercast
7:55 PM57.2 °F51.8 °F82 %29.98 in10.0 miWest (260°)5.8 mphOvercast
8:15 PM57.2 °F51.8 °F82 %29.98 in10.0 miWSW (250°)3.5 mphOvercast
8:35 PM57.2 °F51.8 °F82 %29.98 in10.0 miCalmOvercast
8:55 PM57.2 °F51.8 °F82 %29.99 in10.0 miCalmOvercast
9:15 PM57.2 °F51.8 °F82 %29.99 in10.0 miCalmScattered Clouds
9:35 PM55.4 °F51.8 °F88 %29.99 in10.0 miCalmClear
9:55 PM53.6 °F51.8 °F94 %30.00 in10.0 miWSW (250°)3.5 mphClear
10:15 PM55.4 °F51.8 °F88 %30.00 in10.0 miSW (230°)3.5 mphMostly Cloudy
10:35 PM55.4 °F51.8 °F88 %30.00 in10.0 miSW (220°)3.5 mphScattered Clouds
10:55 PM53.6 °F51.8 °F94 %30.01 in10.0 miCalmMostly Cloudy
11:15 PM53.6 °F51.8 °F94 %30.01 in10.0 miCalmOvercast
11:35 PM53.6 °F51.8 °F94 %30.01 in10.0 miCalmScattered Clouds
11:55 PM53.6 °F51.8 °F94 %30.01 in10.0 miCalmClear
Hourly data recorded from KMSV, located miles away from Rock Hill, New York







STORIES FROM OUR PARTNERS